Regional Weather Roundup
Issued by NWS

Home | Current Version | Previous Version | Text Only | Print | Product List | Glossary On
Versions: 1 2 3 4 5 6 7 8 9 10 11 12 13 14 15 16 17 18 19 20 21 22 23 24 25 26 27 28 29 30 31 32 33 34 35 36 37 38 39 40 41 42 43 44 45 46 47 48 49 50
000
ASUS43 KMPX 281301
RWRMN
WEATHER ROUNDUP FOR MINNESOTA
NATIONAL WEATHER SERVICE TWIN CITIES/CHANHASSEN MN
800 AM CDT TUE APR 28 2015


NOTE: "FAIR" INDICATES FEW OR NO CLOUDS BELOW 12,000 FEET WITH NO
SIGNIFICANT WEATHER AND/OR OBSTRUCTIONS TO VISIBILITY. N/A MEANS
CURRENT SKY AND/OR WEATHER CONDITIONS ARE NOT AVAILABLE.

MNZ060>063-068>070-281400-
   Twin Cities Metro

CITY           SKY/WX    TMP DP  RH WIND       PRES   REMARKS
TWIN CITIES    PTSUNNY   51  33  50 W7        30.16S
ST PAUL        SUNNY     48  39  71 CALM      30.16S
CRYSTAL        MOSUNNY   51  34  52 NW10      30.16R
LAKEVILLE      SUNNY     48  34  57 CALM      30.15S
EDEN PRAIRIE   MOSUNNY   50  32  50 W5        30.16R
SOUTH ST PAUL  SUNNY     48  37  64 SE3       30.15S
LAKE ELMO      FAIR      48  36  61 CALM      30.17R
$$
MNZ001>005-007-008-013>017-022>024-027-028-281400-
   Northwest Minnesota

CITY           SKY/WX    TMP DP  RH WIND       PRES   REMARKS
BEMIDJI        CLOUDY    43  42  95 N8        30.24R
HALLOCK        FOG       37  36  93 CALM      30.30R VSB<1/4
ROSEAU         CLOUDY    41  37  87 N5        30.29R
WARROAD        CLOUDY    43  37  81 N6        30.29R
THIEF RVR FALL CLOUDY    43  37  81 N8        30.30R
CROOKSTON      FOG       39  39 100 N5        30.32R VSB 1/4
FOSSTON        CLOUDY    43  41  93 N9        30.28R
DETROIT LAKES  CLOUDY    45  45 100 N10       30.25R
MOORHEAD       CLOUDY    43  41  93 N13       30.30R FOG
PARK RAPIDS    CLOUDY    48  45  89 N7        30.21S
MAHNOMEN       CLOUDY    45  43  93 N12       30.26R
$$
MNZ006-009>011-018-025>026-281400-
   North Central Minnesota

CITY           SKY/WX    TMP DP  RH WIND       PRES   REMARKS
BAUDETTE       CLOUDY    41  38  89 NW13      30.27R
FLAG ISLAND    PTSUNNY   41  37  87 NW8       30.27S
INTL FALLS     LGT RAIN  44  42  93 NW9       30.23R
WASKISH        CLOUDY    43  43 100 N8        30.26R
BIG FORK       CLOUDY    46  45  93 CALM      30.22S
LONGVILLE      CLOUDY    46  45  93 CALM      30.21F
GRAND RAPIDS   PTSUNNY   48  41  76 NW10      30.20S
CRANE LAKE     LGT RAIN  46  45  93 N3        30.21F
ORR            CLOUDY    48  43  81 CALM      30.18S
COOK           CLOUDY    48  43  81 CALM      30.20S
WALKER         DRIZZLE   44  43  96 CALM      30.22S
$$
MNZ012-019>021-037-281400-
   Northeast Minnesota

CITY           SKY/WX    TMP DP  RH WIND       PRES   REMARKS
DULUTH         PTSUNNY   52  33  48 CALM      30.15F
ELY            PTSUNNY   45  36  70 CALM      30.17S
HIBBING        CLOUDY    50  42  74 N14       30.17F
EVELETH        PTSUNNY   46  34  61 S8        30.18S
DULUTH HARBOR  MOSUNNY   41  37  87 SE3       30.17F
TWO HARBORS    MOSUNNY   52  37  58 CALM      30.14S
SILVER BAY     PTSUNNY   48  36  61 CALM      30.13F
GRAND MARAIS     N/A     38  32  79 SW5       30.15S
G MARAIS ARPRT PTSUNNY   48  27  43 NW5       30.14S
$$
MNZ029>031-032-039>041-046>048-054>057-064-281400-
   West Central Minnesota

CITY           SKY/WX    TMP DP  RH WIND       PRES   REMARKS
FERGUS FALLS   CLOUDY    45  45 100 N12       30.26R FOG
WHEATON        CLOUDY    43  43 100 NW13G18   30.27S
MORRIS         RAIN      46  45  93 NW13G18   30.22S
ALEXANDRIA     CLOUDY    50  44  80 N10       30.22R
ELBOW LAKE     CLOUDY    45  45  99 NW12G17   30.23S FOG
WADENA         DRIZZLE   48  45  87 CALM      30.21S
GLENWOOD       CLOUDY    52  45  76 NW9       30.21S
APPLETON       CLOUDY    48  45  87 N14       30.23R
BENSON         CLOUDY    48  43  81 N10       30.22S
ORTONVILLE     LGT RAIN  46  43  87 NW12      30.24R
MADISON        CLOUDY    48  43  81 NW13      30.24R
WILLMAR        FAIR      52  45  76 NW5       30.21S
$$
MNZ033>034-036-042>043-049>051-058-059-281400-
   Central Minnesota

CITY           SKY/WX    TMP DP  RH WIND       PRES   REMARKS
ST CLOUD       CLOUDY    51  41  68 N9        30.17S
SAUK CENTRE    PTSUNNY   51  44  78 N9        30.20R
PAYNESVILLE    LGT RAIN  49  42  78 CALM      30.20S
AITKIN         MIX PCPN  52  43  71 NW3       30.18R
PINE RIVER     DRIZZLE   46  45  93 N7        30.24S
BRAINERD       LGT RAIN  50  44  80 N13       30.21R
STAPLES        CLOUDY    48  45  87 N6        30.21S
LONG PRAIRIE   PTSUNNY   50  45  81 NW7       30.20S
LITTLE FALLS   LGT RAIN  50  43  76 N9        30.20R
LITCHFIELD     PTSUNNY   52  43  71 N8        30.19R
BUFFALO        PTSUNNY   52  39  60 N12       30.18S
MAPLE LAKE     PTSUNNY   53  43  69 N12       30.18S
$$
MNZ037-044-045-052-053-281400-
   East Central Minnesota

CITY           SKY/WX    TMP DP  RH WIND       PRES   REMARKS
PRINCETON      PTSUNNY   50  39  66 NW9       30.18R
MORA           PTSUNNY   46  32  57 N6        30.19R
CAMBRIDGE      PTSUNNY   48  34  57 NW7       30.15R
RUSH CITY      MOSUNNY   46  34  62 CALM      30.16S
MOOSE LAKE     MOSUNNY   41  32  70 CALM      30.16R
HINCKLEY       FAIR      45  32  61 N8        30.16S
CLOQUET        PTSUNNY   46  30  53 CALM      30.15S
MCGREGOR       CLOUDY    50  41  71 N10       30.19R
$$
MNZ071>073-080-081-089-090-097-098-281400-
   Southwest Minnesota

CITY           SKY/WX    TMP DP  RH WIND       PRES   REMARKS
MONTEVIDEO     CLOUDY    50  43  76 N10       30.22S
GRANITE FALLS  CLOUDY    51  43  74 W7        30.22R
CANBY          CLOUDY    48  44  84 N13G18    30.25S
MARSHALL       PTSUNNY   50  39  66 N14       30.21R
REDWOOD FALLS  CLOUDY    49  41  74 N7        30.19S
OLIVIA         CLOUDY    46  39  76 N12       30.18S
PIPESTONE      FAIR      48  43  81 NE2       30.20S
WINDOM         MOSUNNY   48  41  76 NW14      30.20S
WORTHINGTON    MOSUNNY   45  37  76 N9        30.22R
JACKSON        MOSUNNY   48  37  66 NW9       30.20S
TRACY          CLOUDY    51  43  73 NW7       30.21S
SLAYTON        PTSUNNY   46  42  85 CALM      30.22S
$$
MNZ065>067-074>077-082>085-091>093-281400-
   South Central Minnesota

CITY           SKY/WX    TMP DP  RH WIND       PRES   REMARKS
MANKATO        MOSUNNY   46  28  49 W7        30.18S
NEW ULM        MOSUNNY   45  36  70 NW7       30.19R
ST JAMES       MOSUNNY   50  39  66 NW14      30.20R
FAIRMONT       MOSUNNY   48  36  61 NW9       30.19R
GLENCOE        MOSUNNY   50  37  62 N5        30.17S
FARIBAULT      SUNNY     46  36  66 CALM      30.16S
OWATONNA       SUNNY     48  30  49 CALM      30.17S
WASECA         SUNNY     43  32  65 CALM      30.19S
ALBERT LEA     SUNNY     48  36  61 CALM      30.18S
$$
MNZ078>079-086>088-094>096-281400-
   Southeast Minnesota

CITY           SKY/WX    TMP DP  RH WIND       PRES   REMARKS
ROCHESTER      SUNNY     52  36  54 CALM      30.18S
RED WING       MOSUNNY   46  37  71 CALM      30.16S
STANTON        SUNNY     47  32  56 S3        30.15S
DODGE CENTER   SUNNY     48  36  61 S3        30.17F
WINONA         MOSUNNY   43  36  75 CALM      30.19S
AUSTIN         SUNNY     46  37  71 CALM      30.18R
PRESTON        SUNNY     47  34  60 CALM      30.18S
$$
ABBREVIATIONS USED IN REMARKS
   TC - TEMPERATURES IN CELSIUS
  WCI - WIND CHILL INDEX
   HX - HEAT INDEX
  VSB - VISIBILITY
$$



USA.gov is the U.S. government's official web portal to all federal, state and local government web resources and services.